Weather History for Miami, FL

Change the Weather History Date:

Friday, December 27, 2013

  Actual Average Record
Temperature  
Mean Temperature 74 °F 69 °F  
Max Temperature 80 °F 77 °F 86 °F (1938)
Min Temperature 68 °F 61 °F 38 °F (1909)
Degree Days  
Heating Degree Days 0 2  
Month to date heating degree days 0 26  
Since 1 July heating degree days 2 29  
Cooling Degree Days 9 6  
Month to date cooling degree days 276 182  
Year to date cooling degree days 4817 4554  
Growing Degree Days 24 (Base 50)    
Moisture  
Dew Point 70 °F    
Average Humidity 85    
Maximum Humidity 100    
Minimum Humidity 69    
Precipitation  
Precipitation 0.25 in 0.06 in 1.72 in (1958)
Month to date precipitation 4.55 1.81  
Year to date precipitation 70.30 61.67  
Snow  
Snow 0.00 in - - ()
Month to date snowfall 0.0  
Since 1 July snowfall 0.0  
Snow Depth 0.00 in    
Sea Level Pressure  
Sea Level Pressure 30.14 in    
Wind  
Wind Speed 7 mph (NE)    
Max Wind Speed 16 mph    
Max Gust Speed 25 mph    
Visibility 9 miles    
Events Rain    
T = Trace of Precipitation, MM = Missing Value Source: NWS Daily Summary

Daily Weather History Graph

Daily Weather History Graph

Search for Another Location

Airport:

Trip Planner

Search our weather history database for the weather conditions in past years. The results will help you decide how hot, cold, wet, or windy it might be!

Date:

Astronomy

Dec. 27, 2013 Rise Set
Actual Time 7:06 AM EST 5:38 PM EST
Civil Twilight 6:41 AM EST 6:03 PM EST
Nautical Twilight 6:12 AM EST 6:32 PM EST
Astronomical Twilight 5:44 AM EST 7:00 PM EST
Moon 1:55 AM EST (12/27) 1:31 PM EST (12/27)
Length of Visible Light 11h 22m
Length of Day
10h 32m
Waning Crescent, 28% of the Moon is Illuminated
Dec 27
Waning Crescent
Jan 1
New
Jan 7
First Quarter
Jan 15
Full
Jan 24
Last Quarter

Hourly Weather History & Observations

Time (EST) Temp. Heat Index Dew Point Humidity Pressure Visibility Wind Dir Wind Speed Gust Speed Precip Events Conditions
12:53 AM 70.0 °F - 69.1 °F 97% 30.12 in 10.0 mi Calm Calm - N/A   Partly Cloudy
1:53 AM 71.1 °F - 69.1 °F 93% 30.11 in 10.0 mi North 5.8 mph - N/A   Partly Cloudy
2:53 AM 70.0 °F - 68.0 °F 93% 30.10 in 10.0 mi Calm Calm - N/A   Partly Cloudy
3:53 AM 69.1 °F - 68.0 °F 96% 30.11 in 10.0 mi Calm Calm - N/A   Partly Cloudy
4:53 AM 69.1 °F - 68.0 °F 96% 30.11 in 10.0 mi Calm Calm - N/A   Scattered Clouds
5:53 AM 70.0 °F - 68.0 °F 93% 30.12 in 10.0 mi North 3.5 mph - N/A   Scattered Clouds
6:53 AM 71.1 °F - 68.0 °F 90% 30.14 in 10.0 mi NNW 4.6 mph - N/A   Mostly Cloudy
7:12 AM 71.6 °F - 69.8 °F 94% 30.14 in 10.0 mi NNW 3.5 mph - N/A   Mostly Cloudy
7:53 AM 72.0 °F - 69.1 °F 91% 30.15 in 10.0 mi Calm Calm - 0.00 in Rain Light Rain
8:53 AM 73.9 °F - 70.0 °F 87% 30.18 in 10.0 mi Variable 3.5 mph - 0.00 in   Mostly Cloudy
9:42 AM 75.2 °F - 69.8 °F 83% 30.19 in 10.0 mi ENE 11.5 mph - N/A   Mostly Cloudy
9:53 AM 77.0 °F - 70.0 °F 79% 30.19 in 10.0 mi ENE 11.5 mph - N/A   Mostly Cloudy
10:53 AM 79.0 °F - 69.1 °F 72% 30.19 in 10.0 mi ENE 8.1 mph 19.6 mph N/A   Mostly Cloudy
11:53 AM 79.0 °F - 69.1 °F 72% 30.17 in 10.0 mi ENE 15.0 mph 23.0 mph N/A   Mostly Cloudy
12:53 PM 79.0 °F - 69.1 °F 72% 30.15 in 10.0 mi ENE 11.5 mph - N/A   Overcast
1:53 PM 80.1 °F 82.9 °F 69.1 °F 69% 30.13 in 10.0 mi ENE 11.5 mph - N/A   Overcast
2:53 PM 79.0 °F - 69.1 °F 72% 30.11 in 10.0 mi NE 12.7 mph - N/A   Overcast
3:53 PM 75.9 °F - 70.0 °F 82% 30.12 in 7.0 mi ENE 11.5 mph 19.6 mph 0.00 in Rain Light Rain
4:53 PM 75.9 °F - 70.0 °F 82% 30.12 in 10.0 mi ENE 10.4 mph - 0.00 in   Overcast
5:53 PM 75.9 °F - 70.0 °F 82% 30.13 in 10.0 mi NE 6.9 mph - N/A   Mostly Cloudy
6:47 PM 75.2 °F - 71.6 °F 89% 30.14 in 10.0 mi NE 4.6 mph - 0.01 in   Overcast
6:53 PM 75.0 °F - 72.0 °F 90% 30.14 in 5.0 mi NE 5.8 mph - 0.01 in Rain Light Rain
6:58 PM 75.2 °F - 71.6 °F 89% 30.14 in 1.0 mi ENE 9.2 mph - 0.00 in Rain Heavy Rain
7:05 PM 73.4 °F - 71.6 °F 94% 30.14 in 0.8 mi NE 10.4 mph 16.1 mph 0.09 in Rain Heavy Rain
7:13 PM 73.4 °F - 71.6 °F 94% 30.14 in 5.0 mi NE 8.1 mph 16.1 mph 0.11 in Rain Rain
7:18 PM 73.4 °F - 71.6 °F 94% 30.14 in 7.0 mi NNE 8.1 mph - 0.11 in Rain Light Rain
7:53 PM 73.9 °F - 71.1 °F 91% 30.15 in 10.0 mi NNE 6.9 mph - 0.11 in Rain Light Rain
8:53 PM 73.9 °F - 71.1 °F 91% 30.16 in 7.0 mi NNE 5.8 mph - 0.00 in Rain Light Rain
9:18 PM 73.4 °F - 71.6 °F 94% 30.17 in 10.0 mi NE 9.2 mph 16.1 mph 0.01 in Rain Light Rain
9:27 PM 75.2 °F - 71.6 °F 89% 30.16 in 10.0 mi NE 9.2 mph - 0.01 in Rain Light Rain
9:53 PM 73.9 °F - 71.1 °F 91% 30.17 in 10.0 mi NE 6.9 mph - 0.01 in Rain Light Rain
10:08 PM 73.4 °F - 71.6 °F 94% 30.18 in 6.0 mi East 11.5 mph 18.4 mph 0.00 in Rain Light Rain
10:53 PM 73.0 °F - 70.0 °F 90% 30.17 in 5.0 mi ENE 6.9 mph - 0.06 in Rain Light Rain
11:53 PM 72.0 °F - 70.0 °F 93% 30.17 in 4.0 mi ENE 8.1 mph - 0.04 in Rain Light Rain